sat.trackr.live / text

‹ back to catalog

STARLINK-34490

NORAD 64478 · 2025-133G

PAYLOAD ACTIVE UNKNOWN

§ Identity

Operator
Country
US
Launch date
2025-06-23
Launch site
AFETR
Launch vehicle
Mass (kg)
RCS (m²)

Purposes: comms

External: N2YO · Heavens-Above · Gunter

§ Orbital elements

Epoch: 2026-09-20T09:25:24.820896Z

Period
93.85 min
Inclination
53.1595°
Eccentricity
0.0001366
Mean motion
15.34399469 rev/d
Perigee alt
461.8 km
Apogee alt
463.6 km
Semi-major
6,840.8 km
B*
4.8003e-4
RAAN
289.9206°
Arg perigee
88.7947°
Mean anomaly
271.3212°
Rev number
7,103

§ Raw data

STARLINK-344901 64478U 25133G   26263.39264839  .00015876  00000+0  48003-3 0  99902 64478  53.1595 289.9206 0001366  88.7947 271.3212 15.34399469 71036

JSON: /api/v1/satellites/64478 · /tle

For live sub-satellite position, see the globe view (requires WebGL).

§ Visibility from observer

Set your observer location to see the next 7 days of passes ≥ 10°. The values pass through the URL so the page stays shareable.

No JS? Fill the form by hand. The geolocation button needs JavaScript.